Location: Unspecified
(0.0000°N, 0.0000°E)
Time: 10:23:06
(UTC+00:00)

Courier 1B Rocket - All Passes

Search period start: 28 July 2015 00:00
Search period end: 07 August 2015 00:00
Orbit: 921 x 1202 km, 28.2° (Epoch: 25 July)

Date Brightness Start Highest point End Pass type
(mag) Time Alt. Az. Time Alt. Az. Time Alt. Az.
28 Jul - 02:54:24 10° SSW 02:58:14 15° SSE 03:02:07 10° SE visible
28 Jul - 04:45:56 10° SW 04:52:34 47° SSE 04:58:48 10° ENE visible
28 Jul - 06:39:45 10° WSW 06:46:06 47° NNW 06:52:07 10° NE daylight
28 Jul - 08:37:16 10° NW 08:40:02 13° NNW 08:42:34 10° N daylight
28 Jul - 14:24:25 10° N 14:26:27 12° NNE 14:28:49 10° NE daylight
28 Jul - 16:14:19 10° NW 16:20:44 40° NNE 16:27:39 10° E daylight
28 Jul - 18:07:19 10° WNW 18:14:32 63° SSW 18:22:11 10° SE daylight
28 Jul - 20:03:17 10° WSW 20:08:54 21° SSW 20:14:27 10° SSE visible
29 Jul - 01:54:50 10° S 01:56:35 11° SSE 01:58:33 10° SSE night (unlit)
29 Jul - 03:45:08 10° SW 03:51:22 32° SSE 03:57:18 10° E visible
29 Jul - 05:38:15 10° WSW 05:45:06 74° NNW 05:51:30 10° NE visible
29 Jul - 07:34:10 10° WNW 07:38:46 20° NNW 07:43:07 10° NNE daylight
29 Jul - 15:14:02 10° NNW 15:19:31 26° NNE 15:25:26 10° E daylight
29 Jul - 17:06:12 10° WNW 17:13:18 89° NNE 17:20:56 10° ESE daylight
29 Jul - 19:01:00 10° W 19:07:22 29° SSW 19:13:53 10° SSE visible
29 Jul - 21:00:53 10° SSW 21:02:28 11° SSW 21:03:45 10° S visible
30 Jul - 02:44:30 10° SSW 02:50:01 23° SSE 02:55:23 10° ESE visible
30 Jul - 04:36:58 10° SW 04:44:04 74° SSE 04:50:38 10° ENE visible
30 Jul - 06:31:49 10° W 06:37:38 30° NNW 06:43:05 10° NNE daylight
30 Jul - 14:14:09 10° NNW 14:18:14 17° NNE 14:22:40 10° ENE daylight
30 Jul - 16:05:24 10° NW 16:12:08 60° NNE 16:19:26 10° ESE daylight
30 Jul - 17:59:13 10° W 18:05:58 42° SSW 18:13:05 10° SE daylight
30 Jul - 19:56:38 10° SW 20:00:40 15° SSW 20:04:32 10° S visible
31 Jul - 01:44:06 10° SSW 01:48:30 17° SSE 01:52:56 10° ESE night (unlit)
31 Jul - 03:35:54 10° SW 03:42:55 50° SSE 03:49:28 10° ENE visible
31 Jul - 05:29:54 10° WSW 05:36:33 47° NNW 05:42:44 10° NE visible
31 Jul - 07:27:38 10° NW 07:30:31 13° NNW 07:33:09 10° N daylight
31 Jul - 13:15:21 10° N 13:16:51 11° NNE 13:18:39 10° NE daylight
31 Jul - 15:04:53 10° NW 15:11:01 39° NNE 15:17:38 10° E daylight
31 Jul - 16:57:50 10° WNW 17:04:41 61° SSW 17:12:05 10° SE daylight
31 Jul - 18:53:45 10° WSW 18:59:01 20° SSW 19:04:17 10° SSE visible
01 Aug - 00:44:10 10° S 00:46:48 12° SSE 00:49:39 10° SE night (unlit)
01 Aug - 02:35:01 10° SW 02:41:39 34° SSE 02:47:57 10° E visible
01 Aug - 04:28:17 10° WSW 04:35:29 72° NNW 04:42:08 10° NE visible
01 Aug - 06:24:23 10° WNW 06:29:14 20° NNW 06:33:44 10° NNE daylight
01 Aug - 14:04:39 10° NNW 14:09:52 26° NNE 14:15:28 10° E daylight
01 Aug - 15:56:46 10° WNW 16:03:32 89° SSW 16:10:52 10° ESE daylight
01 Aug - 17:51:33 10° W 17:57:31 28° SSW 18:03:43 10° SSE daylight
02 Aug - 01:34:18 10° SSW 01:40:14 25° SSE 01:46:02 10° ESE night (unlit)
02 Aug - 03:26:55 10° SW 03:34:22 77° SSE 03:41:15 10° ENE visible
02 Aug - 05:21:56 10° W 05:28:02 31° NNW 05:33:43 10° NNE visible
02 Aug - 13:04:49 10° NNW 13:08:39 17° NNE 13:12:47 10° ENE daylight
02 Aug - 14:56:01 10° NW 15:02:27 61° NNE 15:09:25 10° ESE daylight
02 Aug - 16:49:48 10° W 16:56:10 39° SSW 17:02:57 10° SE daylight
02 Aug - 18:47:19 10° SW 18:50:50 14° SSW 18:54:13 10° S visible
03 Aug - 00:33:51 10° SSW 00:38:39 18° SSE 00:43:34 10° ESE night (unlit)
03 Aug - 02:25:47 10° SW 02:33:09 52° SSE 02:40:04 10° ENE visible
03 Aug - 04:19:55 10° WSW 04:26:53 47° NNW 04:33:21 10° NE visible
03 Aug - 06:17:44 10° NW 06:20:57 13° NNW 06:23:51 10° N daylight
03 Aug - 12:06:12 10° N 12:07:19 11° NNE 12:08:41 10° NE daylight
03 Aug - 13:55:31 10° NW 14:01:24 39° NNE 14:07:42 10° E daylight
03 Aug - 15:48:26 10° WNW 15:54:58 58° SSW 16:02:00 10° SE daylight
03 Aug - 17:44:25 10° WSW 17:49:14 19° SSW 17:54:03 10° SSE daylight
03 Aug - 23:33:49 10° S 23:36:57 13° SSE 23:40:19 10° SE night (unlit)
04 Aug - 01:24:52 10° SW 01:31:49 36° SSE 01:38:31 10° E night (unlit)
04 Aug - 03:18:14 10° WSW 03:25:45 71° NNW 03:32:43 10° NE visible
04 Aug - 05:14:27 10° WNW 05:19:37 21° NNW 05:24:23 10° NNE visible
04 Aug - 12:55:16 10° NNW 13:00:19 25° NNE 13:05:39 10° E daylight
04 Aug - 14:47:24 10° WNW 14:53:53 87° SSW 15:00:52 10° ESE daylight
04 Aug - 16:42:13 10° W 16:47:47 26° SSW 16:53:34 10° SSE daylight
05 Aug - 00:24:09 10° SSW 00:30:21 26° SSE 00:36:31 10° E night (unlit)
05 Aug - 02:16:50 10° SW 02:24:33 79° SSE 02:31:47 10° ENE visible
05 Aug - 04:11:56 10° W 04:18:21 31° NNW 04:24:18 10° NNE visible
05 Aug - 11:55:25 10° NNW 11:59:08 16° NNE 12:03:05 10° ENE daylight
05 Aug - 13:46:38 10° NW 13:52:53 62° NNE 13:59:31 10° ESE daylight
05 Aug - 15:40:29 10° W 15:46:30 37° SSW 15:52:52 10° SE daylight
05 Aug - 17:38:16 10° SW 17:41:05 12° SSW 17:43:44 10° S daylight
05 Aug - 23:23:43 10° SSW 23:28:46 19° SSE 23:33:59 10° ESE night (unlit)
06 Aug - 01:15:41 10° SW 01:23:16 55° SSE 01:30:31 10° ENE night (unlit)
06 Aug - 03:09:51 10° WSW 03:17:07 47° NNW 03:23:53 10° NE visible
06 Aug - 05:07:40 10° NW 05:11:19 14° NNW 05:14:36 10° N visible
06 Aug - 10:56:41 10° N 10:57:48 11° NNE 10:59:11 10° NE daylight
06 Aug - 12:46:07 10° NW 12:51:53 39° NNE 12:57:55 10° E daylight
06 Aug - 14:39:07 10° WNW 14:45:22 55° SSW 14:52:01 10° SE daylight
06 Aug - 16:35:14 10° WSW 16:39:32 17° SSW 16:43:49 10° SSE daylight
06 Aug - 22:23:44 10° S 22:27:04 13° SSE 22:30:41 10° SE night (unlit)
